Downstream station:
SHEF ID: ENWK1 CROOKED C NR ENGLEWOOD, KS
STATION TYPE:
Regulating: Stage = 6.50, Flow = 243
PRECIP STAGE RIV-FLOW BAT-LOAD
in ft cfs volt
Ccp-Rev Ccp-Rev Ccp-Rev Ccp-Rev
(US/Central)
01/28 00:00 0.00 2.43 3 12.83
01/28 01:00 0.00 2.43 3 12.83
01/28 02:00 0.00 2.42 3 12.83
01/28 03:00 0.00 2.42 3 12.77
01/28 04:00 0.00 2.41 3 12.77
01/28 05:00 0.00 2.40 3 12.71
01/28 06:00 0.00 2.40 3 12.65
01/28 07:00 0.00 2.39 3 12.60
01/28 08:00 0.00 2.43 3 12.54
01/28 09:00 0.00 2.48 4 14.12
01/28 10:00 0.00 2.38 3 14.88
01/28 11:00 0.00 2.37 3 14.71
01/28 12:00 0.00 2.36 3 14.59
01/28 13:00 0.00 2.35 3 14.47
01/28 14:00 0.00 2.37 3 14.41
01/28 15:00 0.00 2.41 3 14.30
01/28 16:00 0.00 2.43 3 14.35
01/28 17:00 0.00 2.43 3 14.06
01/28 18:00 0.00 2.43 3 14.00
01/28 19:00 0.00 2.43 3 13.42
01/28 20:00 0.00 2.42 3 13.07
01/28 21:00 0.00 2.42 3 12.95
01/28 22:00 0.00 2.41 3 12.89
01/28 23:00 ---- ---- ---- ----